User: anonymous   Login
Location: Campillo
(40.8621°N, 4.2488°W)
Time: 08:01:13
(UTC+00:00)
Language:

GPS 2-04 Rocket1 - Orbit

View from above orbital plane
View from above orbital plane
View from above satellite
View from above satellite

Ground track
Ground track

The orbit data is extracted from the following two-line orbital elements,

1 20303U 89085B   21216.51327499  .00003248  00000-0  99426-4 0  9991
2 20303  35.6436 291.8340 0090579 254.1217 104.9513 15.29552881731837
Epoch (UTC): 04 August 2021 12:19:06
Eccentricity: 0.0090579
inclination: 35.6436°
perigee height: 415 km
apogee height: 539 km
right ascension of ascending node: 291.8340°
argument of perigee: 254.1217°
revolutions per day: 15.29552881
mean anomaly at epoch: 104.9513°
orbit number at epoch: 73183

The dashed part of the orbit path shows where the satellite is in the earth's shadow,  

DLR